N5CSU Weather Reports


Display with metric or nautical units.
time (UTC)temp
F
wind
direction
speed
MPH
gust
MPH
rain 1hr
in
rain 24hr
in
rain mn
in
humidity
%
barometer
mb
20210723201110 91 100 0.0 0.0 0.00 0.00 0.00 12 1018.3
20210723200609 91 157 0.0 0.0 0.00 0.00 0.00 12 1018.3
20210723200107 90 139 0.0 0.0 0.00 0.00 0.00 13 1018.3
20210723195606 90 270 0.0 0.0 0.00 0.00 0.00 17 1018.3
20210723195105 90 174 0.0 0.0 0.00 0.00 0.00 15 1018.7
20210723194604 90 191 0.0 0.0 0.00 0.00 0.00 18 1018.7
20210723194103 90 212 0.0 0.0 0.00 0.00 0.00 18 1018.3
20210723193558 90 354 0.0 0.0 0.00 0.00 0.00 14 1018.7
20210723193057 89 161 0.0 0.0 0.00 0.00 0.00 18 1018.7
20210723192555 89 167 0.0 0.0 0.00 0.00 0.00 18 1018.7
20210723192055 89 12 0.0 0.0 0.00 0.00 0.00 18 1018.7
20210723191552 89 60 0.0 0.0 0.00 0.00 0.00 19 1019.0
20210723191052 89 176 0.0 0.0 0.00 0.00 0.00 18 1018.7
20210723190546 89 183 0.0 3.0 0.00 0.00 0.00 18 1019.0
20210723190045 89 295 0.0 0.0 0.00 0.00 0.00 19 1019.0
20210723185545 89 0 0.0 0.0 0.00 0.00 0.00 18 1019.4
20210723185044 89 280 0.0 0.0 0.00 0.00 0.00 19 1019.4
20210723184543 89 286 0.0 0.0 0.00 0.00 0.00 19 1019.4
20210723184041 89 159 0.0 0.0 0.00 0.00 0.00 19 1019.4
20210723183541 88 78 0.0 0.0 0.00 0.00 0.00 20 1019.4
20210723183038 88 166 0.0 0.0 0.00 0.00 0.00 20 1019.7
20210723182534 89 183 0.0 0.0 0.00 0.00 0.00 20 1019.7
20210723182034 89 234 0.0 3.0 0.00 0.00 0.00 19 1020.0
20210723181531 89 235 0.0 0.0 0.00 0.00 0.00 19 1020.0
20210723181028 88 257 0.0 0.0 0.00 0.00 0.00 20 1020.0
20210723180526 88 167 0.0 3.0 0.00 0.00 0.00 20 1020.0
20210723180023 88 31 0.0 0.0 0.00 0.00 0.00 19 1020.4
20210723175523 88 2 0.0 0.0 0.00 0.00 0.00 20 1020.0
20210723175022 87 130 0.0 0.0 0.00 0.00 0.00 21 1020.4
20210723174522 87 127 1.0 3.0 0.00 0.00 0.00 21 1020.4
20210723174020 87 224 0.0 3.0 0.00 0.00 0.00 22 1020.7
20210723173519 87 175 0.0 3.0 0.00 0.00 0.00 22 1020.4
20210723173018 87 272 0.0 0.0 0.00 0.00 0.00 21 1020.7
20210723172516 87 155 0.0 0.0 0.00 0.00 0.00 23 1020.7
20210723172014 87 176 0.0 0.0 0.00 0.00 0.00 22 1020.4
20210723171512 87 314 2.0 3.0 0.00 0.00 0.00 22 1020.4
20210723171010 87 153 0.0 0.0 0.00 0.00 0.00 22 1020.7
20210723170509 87 290 0.0 0.0 0.00 0.00 0.00 22 1020.7
20210723170008 87 248 0.0 0.0 0.00 0.00 0.00 23 1020.7
20210723165507 87 279 0.0 0.0 0.00 0.00 0.00 22 1020.7
20210723165005 87 308 0.0 3.0 0.00 0.00 0.00 22 1020.7
20210723164505 86 172 0.0 0.0 0.00 0.00 0.00 21 1020.7
20210723164005 86 136 0.0 3.0 0.00 0.00 0.00 22 1020.7
20210723163504 86 6 0.0 0.0 0.00 0.00 0.00 22 1021.0
20210723163002 85 72 0.0 0.0 0.00 0.00 0.00 23 1020.7
20210723162501 85 181 0.0 0.0 0.00 0.00 0.00 25 1020.7
20210723161959 85 319 0.0 0.0 0.00 0.00 0.00 26 1020.7
20210723161457 85 168 0.0 3.0 0.00 0.00 0.00 28 1021.0
20210723160956 85 169 0.0 0.0 0.00 0.00 0.00 28 1020.7
20210723160453 84 110 0.0 0.0 0.00 0.00 0.00 28 1021.0
20210723155953 84 170 1.0 3.0 0.00 0.00 0.00 29 1021.0
20210723155451 84 210 0.0 3.0 0.00 0.00 0.00 29 1021.0
20210723154949 84 45 0.0 0.0 0.00 0.00 0.00 30 1021.0
20210723154446 84 289 0.0 3.0 0.00 0.00 0.00 29 1021.0
20210723153945 83 350 0.0 0.0 0.00 0.00 0.00 31 1021.0
20210723153445 83 320 0.0 3.0 0.00 0.00 0.00 32 1021.0
20210723152945 83 5 0.0 0.0 0.00 0.00 0.00 32 1021.0
20210723152443 83 77 0.0 3.0 0.00 0.00 0.00 32 1021.0
20210723151942 83 349 0.0 0.0 0.00 0.00 0.00 33 1021.0
20210723151438 82 318 0.0 0.0 0.00 0.00 0.00 33 1021.4
20210723150936 82 263 0.0 0.0 0.00 0.00 0.00 33 1021.0
20210723150436 82 157 2.0 3.0 0.00 0.00 0.00 33 1021.0
20210723145935 82 148 0.0 3.0 0.00 0.00 0.00 34 1021.0
20210723145434 81 284 0.0 0.0 0.00 0.00 0.00 33 1021.4
20210723144933 81 208 0.0 3.0 0.00 0.00 0.00 34 1021.4
20210723144430 81 276 0.0 3.0 0.00 0.00 0.00 35 1021.0
20210723143928 80 151 1.0 3.0 0.00 0.00 0.00 35 1021.0
20210723143426 80 166 0.0 0.0 0.00 0.00 0.00 35 1021.4
20210723142922 80 166 0.0 0.0 0.00 0.00 0.00 36 1021.4
20210723142421 80 44 0.0 0.0 0.00 0.00 0.00 38 1021.4
20210723141920 79 207 0.0 0.0 0.00 0.00 0.00 40 1021.0
20210723141418 79 338 0.0 0.0 0.00 0.00 0.00 40 1021.0
20210723140918 79 342 0.0 0.0 0.00 0.00 0.00 40 1021.4
20210723140418 79 333 0.0 0.0 0.00 0.00 0.00 40 1021.4
20210723135917 78 194 0.0 0.0 0.00 0.00 0.00 41 1021.0
20210723135416 78 359 0.0 0.0 0.00 0.00 0.00 41 1021.0
20210723134913 78 263 0.0 0.0 0.00 0.00 0.00 41 1021.0
20210723134412 78 63 0.0 0.0 0.00 0.00 0.00 42 1021.0
20210723133912 77 211 0.0 0.0 0.00 0.00 0.00 43 1021.0
20210723133410 77 36 0.0 0.0 0.00 0.00 0.00 43 1021.0
20210723132910 77 1 0.0 0.0 0.00 0.00 0.00 43 1021.0
20210723132409 77 356 0.0 0.0 0.00 0.00 0.00 43 1021.0
20210723131908 76 4 0.0 0.0 0.00 0.00 0.00 44 1021.0
20210723131406 76 354 0.0 0.0 0.00 0.00 0.00 45 1021.0
20210723130904 76 316 0.0 0.0 0.00 0.00 0.00 47 1020.7
20210723130401 76 356 0.0 0.0 0.00 0.00 0.00 47 1020.7
20210723125859 75 11 0.0 0.0 0.00 0.00 0.00 47 1021.0
20210723125355 75 313 0.0 0.0 0.00 0.00 0.00 49 1020.7
20210723124854 75 158 0.0 0.0 0.00 0.00 0.00 51 1020.7
20210723124352 75 44 0.0 0.0 0.00 0.00 0.00 51 1020.7
20210723123851 75 17 0.0 0.0 0.00 0.00 0.00 52 1020.4
20210723123351 74 44 0.0 0.0 0.00 0.00 0.00 53 1020.7
20210723122849 74 5 0.0 0.0 0.00 0.00 0.00 54 1020.7
20210723122348 74 5 0.0 0.0 0.00 0.00 0.00 54 1020.7
20210723121848 74 8 0.0 0.0 0.00 0.00 0.00 55 1020.7
20210723121342 74 359 0.0 0.0 0.00 0.00 0.00 55 1020.4
20210723120840 74 359 0.0 0.0 0.00 0.00 0.00 56 1020.7
20210723120338 74 5 0.0 0.0 0.00 0.00 0.00 56 1020.7
20210723115837 74 5 0.0 0.0 0.00 0.00 0.00 56 1020.7
20210723115336 74 2 0.0 0.0 0.00 0.00 0.00 56 1020.4
20210723114833 74 8 0.0 0.0 0.00 0.00 0.00 56 1020.7
20210723114333 74 5 0.0 0.0 0.00 0.00 0.00 56 1020.4
20210723113832 75 5 0.0 0.0 0.00 0.00 0.00 56 1020.4
20210723113326 75 5 0.0 0.0 0.00 0.00 0.00 56 1020.7
20210723112825 75 5 0.0 0.0 0.00 0.00 0.00 55 1020.7
20210723112326 75 5 0.0 0.0 0.00 0.00 0.00 55 1020.4
20210723111823 75 5 0.0 0.0 0.00 0.00 0.00 55 1020.4
20210723111323 75 5 0.0 0.0 0.00 0.00 0.00 55 1020.4
20210723110822 75 5 0.0 0.0 0.00 0.00 0.00 54 1020.4
20210723110322 75 7 0.0 0.0 0.00 0.00 0.00 54 1020.4
20210723105820 75 7 0.0 0.0 0.00 0.00 0.00 54 1020.4
20210723105319 75 7 0.0 0.0 0.00 0.00 0.00 54 1020.4
20210723104816 75 7 0.0 0.0 0.00 0.00 0.00 54 1020.4
20210723104315 75 7 0.0 0.0 0.00 0.00 0.00 54 1020.4
20210723103814 75 11 0.0 0.0 0.00 0.00 0.00 54 1020.4
20210723103314 75 9 0.0 0.0 0.00 0.00 0.00 54 1020.4
20210723102812 75 9 0.0 0.0 0.00 0.00 0.00 54 1020.4
20210723102311 76 5 0.0 0.0 0.00 0.00 0.00 53 1020.4
20210723101811 76 5 0.0 0.0 0.00 0.00 0.00 53 1020.4
20210723101309 76 5 0.0 0.0 0.00 0.00 0.00 53 1020.4
20210723100807 76 5 0.0 0.0 0.00 0.00 0.00 52 1020.4
20210723100306 76 4 0.0 0.0 0.00 0.00 0.00 52 1020.0
20210723095805 76 358 0.0 0.0 0.00 0.00 0.00 49 1020.4
20210723095306 76 351 0.0 0.0 0.00 0.00 0.00 48 1020.0
20210723094804 77 337 0.0 0.0 0.00 0.00 0.00 47 1020.0
20210723094303 77 333 0.0 0.0 0.00 0.00 0.00 47 1020.0
20210723093801 77 11 0.0 0.0 0.00 0.00 0.00 47 1020.0
20210723093300 77 16 0.0 0.0 0.00 0.00 0.00 46 1020.0
20210723092759 77 1 0.0 0.0 0.00 0.00 0.00 46 1020.0
20210723092257 77 328 0.0 0.0 0.00 0.00 0.00 46 1020.0
20210723091756 77 341 0.0 0.0 0.00 0.00 0.00 45 1020.0
20210723091255 77 335 0.0 0.0 0.00 0.00 0.00 44 1020.0
20210723090755 77 330 0.0 0.0 0.00 0.00 0.00 43 1020.0
20210723090251 77 322 0.0 0.0 0.00 0.00 0.00 43 1020.4
20210723085750 77 266 0.0 0.0 0.00 0.00 0.00 43 1020.0
20210723085249 77 269 0.0 0.0 0.00 0.00 0.00 43 1020.4
20210723084747 77 329 0.0 0.0 0.00 0.00 0.00 43 1020.0
20210723084245 77 27 0.0 0.0 0.00 0.00 0.00 43 1020.4
20210723083744 78 11 0.0 0.0 0.00 0.00 0.00 42 1020.4
20210723083243 78 2 0.0 0.0 0.00 0.00 0.00 42 1020.0
20210723082741 78 15 0.0 0.0 0.00 0.00 0.00 41 1020.0
20210723082240 78 11 0.0 0.0 0.00 0.00 0.00 41 1020.0
20210723081740 78 318 0.0 0.0 0.00 0.00 0.00 41 1020.0
20210723081239 78 35 0.0 0.0 0.00 0.00 0.00 41 1020.0
20210723080738 78 355 0.0 0.0 0.00 0.00 0.00 41 1020.0
20210723080236 78 13 0.0 0.0 0.00 0.00 0.00 41 1020.0
20210723075733 78 355 0.0 0.0 0.00 0.00 0.00 40 1020.0
20210723075231 78 355 0.0 0.0 0.00 0.00 0.00 40 1020.0
20210723074730 78 355 0.0 0.0 0.00 0.00 0.00 40 1020.4
20210723074225 79 3 0.0 0.0 0.00 0.00 0.00 39 1020.4
20210723073724 79 250 0.0 0.0 0.00 0.00 0.00 39 1020.0
20210723073224 79 49 0.0 0.0 0.00 0.00 0.00 39 1020.4
20210723072722 79 70 0.0 0.0 0.00 0.00 0.00 39 1020.4
20210723072221 79 336 0.0 0.0 0.00 0.00 0.00 39 1020.0
20210723071719 79 346 0.0 0.0 0.00 0.00 0.00 38 1020.4
20210723071218 79 4 0.0 0.0 0.00 0.00 0.00 37 1020.0
20210723070715 79 352 0.0 0.0 0.00 0.00 0.00 37 1020.0
20210723070214 79 1 0.0 0.0 0.00 0.00 0.00 37 1020.0
20210723065714 79 339 0.0 0.0 0.00 0.00 0.00 36 1020.0
20210723065213 80 2 0.0 0.0 0.00 0.00 0.00 36 1020.0
20210723064711 80 1 0.0 0.0 0.00 0.00 0.00 36 1019.7
20210723064208 80 4 0.0 0.0 0.00 0.00 0.00 35 1020.0
20210723063708 80 2 0.0 0.0 0.00 0.00 0.00 35 1020.0
20210723063208 80 34 0.0 0.0 0.00 0.00 0.00 34 1020.0
20210723062707 80 359 0.0 0.0 0.00 0.00 0.00 34 1020.0
20210723062205 81 9 0.0 0.0 0.00 0.00 0.00 33 1019.7
20210723061702 81 12 0.0 0.0 0.00 0.00 0.00 33 1019.7
20210723061202 81 345 0.0 0.0 0.00 0.00 0.00 32 1019.7
20210723060700 81 353 0.0 0.0 0.00 0.00 0.00 31 1020.0
20210723060149 81 330 0.0 0.0 0.00 0.00 0.00 31 1019.4
20210723055647 82 342 0.0 0.0 0.00 0.00 0.00 30 1019.7
20210723055147 82 157 0.0 0.0 0.00 0.00 0.00 30 1019.7
20210723054646 82 334 0.0 0.0 0.00 0.00 0.00 30 1019.7
20210723054144 82 337 0.0 0.0 0.00 0.00 0.00 29 1020.0
20210723053640 82 9 0.0 0.0 0.00 0.00 0.00 29 1019.7
20210723053136 82 117 0.0 0.0 0.00 0.00 0.00 29 1019.7
20210723052636 83 1 0.0 0.0 0.00 0.00 0.00 29 1019.7
20210723052132 83 267 0.0 0.0 0.00 0.00 0.00 28 1019.7
20210723051629 83 141 0.0 0.0 0.00 0.00 0.00 29 1019.7
20210723051127 83 166 0.0 0.0 0.00 0.00 0.00 28 1019.7
20210723050624 83 8 0.0 0.0 0.00 0.00 0.00 28 1019.7
20210723050121 83 9 0.0 0.0 0.00 0.00 0.00 27 1019.7
20210723045620 83 275 0.0 0.0 0.00 0.00 0.00 27 1019.7
20210723045115 83 244 0.0 0.0 0.00 0.00 0.00 26 1019.7
20210723044610 83 173 0.0 0.0 0.00 0.00 0.00 26 1019.7
20210723044110 83 229 0.0 0.0 0.00 0.00 0.00 26 1019.7
20210723043609 84 324 0.0 0.0 0.00 0.00 0.00 26 1019.4
20210723043108 84 354 0.0 0.0 0.00 0.00 0.00 26 1019.4
20210723042607 84 351 0.0 0.0 0.00 0.00 0.00 26 1019.4
20210723042107 84 4 0.0 0.0 0.00 0.00 0.00 26 1019.4
20210723041605 84 338 0.0 0.0 0.00 0.00 0.00 26 1019.4
20210723041104 84 335 0.0 0.0 0.00 0.00 0.00 26 1019.4
20210723040604 84 8 0.0 0.0 0.00 0.00 0.00 26 1019.4
20210723040103 84 336 0.0 0.0 0.00 0.00 0.00 26 1019.4
20210723035602 84 354 0.0 0.0 0.00 0.00 0.00 25 1019.4
20210723035101 84 10 0.0 0.0 0.00 0.00 0.00 24 1019.4
20210723034600 85 9 0.0 0.0 0.00 0.00 0.00 24 1019.7
20210723034059 85 12 0.0 0.0 0.00 0.00 0.00 24 1019.4
20210723033557 85 14 0.0 0.0 0.00 0.00 0.00 24 1019.4
20210723033055 85 331 0.0 0.0 0.00 0.00 0.00 24 1019.4
20210723032554 85 338 0.0 0.0 0.00 0.00 0.00 24 1019.4
20210723032052 85 13 0.0 0.0 0.00 0.00 0.00 24 1019.4
20210723031549 85 353 0.0 0.0 0.00 0.00 0.00 24 1019.4
20210723031045 85 345 0.0 0.0 0.00 0.00 0.00 24 1019.4
20210723030543 85 14 0.0 0.0 0.00 0.00 0.00 24 1019.4
20210723030042 85 356 0.0 0.0 0.00 0.00 0.00 24 1019.0
20210723025541 85 2 0.0 0.0 0.00 0.00 0.00 23 1019.4
20210723025039 85 42 0.0 0.0 0.00 0.00 0.00 23 1019.0
20210723024537 85 11 0.0 0.0 0.00 0.00 0.00 23 1019.4
20210723024036 86 5 0.0 0.0 0.00 0.00 0.00 23 1019.0
20210723023535 86 215 0.0 0.0 0.00 0.00 0.00 23 1019.4
20210723023034 86 5 0.0 0.0 0.00 0.00 0.00 23 1019.0
20210723022533 86 324 0.0 0.0 0.00 0.00 0.00 23 1019.0
20210723022031 86 48 0.0 0.0 0.00 0.00 0.00 23 1019.0
20210723021529 86 52 0.0 0.0 0.00 0.00 0.00 23 1019.0
20210723021028 86 359 0.0 0.0 0.00 0.00 0.00 23 1019.0
20210723020523 86 137 0.0 0.0 0.00 0.00 0.00 23 1019.0
20210723020023 86 357 0.0 0.0 0.00 0.00 0.00 22 1018.7
20210723015521 86 40 0.0 0.0 0.00 0.00 0.00 21 1018.7
20210723015020 87 12 0.0 0.0 0.00 0.00 0.00 21 1018.7
20210723014520 87 356 0.0 0.0 0.00 0.00 0.00 21 1018.7
20210723014020 87 353 0.0 0.0 0.00 0.00 0.00 21 1018.7
20210723013518 87 339 0.0 0.0 0.00 0.00 0.00 20 1018.7
20210723013017 87 17 0.0 0.0 0.00 0.00 0.00 20 1018.7
20210723012515 87 82 0.0 0.0 0.00 0.00 0.00 20 1018.7
20210723012014 87 17 0.0 0.0 0.00 0.00 0.00 20 1018.7
20210723011513 87 3 0.0 0.0 0.00 0.00 0.00 20 1018.3
20210723011011 88 116 0.0 0.0 0.00 0.00 0.00 20 1018.7
20210723010510 88 349 0.0 0.0 0.00 0.00 0.00 20 1018.7
20210723010008 88 7 0.0 0.0 0.00 0.00 0.00 20 1018.7
20210723005505 88 69 0.0 3.0 0.00 0.00 0.00 18 1018.7
20210723005005 88 41 0.0 0.0 0.00 0.00 0.00 19 1018.7
20210723004502 88 1 0.0 0.0 0.00 0.00 0.00 18 1018.7
20210723004001 88 349 0.0 0.0 0.00 0.00 0.00 17 1018.3
20210723003501 88 354 0.0 0.0 0.00 0.00 0.00 15 1018.3
20210723002956 89 21 0.0 0.0 0.00 0.00 0.00 18 1018.3
20210723002453 89 57 0.0 0.0 0.00 0.00 0.00 18 1018.3
20210723001952 89 355 0.0 0.0 0.00 0.00 0.00 18 1018.0
20210723001451 89 325 0.0 0.0 0.00 0.00 0.00 17 1018.0
20210723000950 89 333 0.0 0.0 0.00 0.00 0.00 18 1018.0
20210723000451 89 8 0.0 0.0 0.00 0.00 0.00 17 1018.0
20210722235948 89 1 0.0 0.0 0.00 0.00 0.00 18 1018.0
20210722235446 89 351 0.0 0.0 0.00 0.00 0.00 18 1018.0
20210722234946 89 154 0.0 0.0 0.00 0.00 0.00 14 1017.7
20210722234444 89 36 0.0 0.0 0.00 0.00 0.00 16 1018.0
20210722233941 89 0 0.0 0.0 0.00 0.00 0.00 16 1018.0
20210722233440 89 168 0.0 0.0 0.00 0.00 0.00 16 1018.0
20210722232939 90 341 0.0 0.0 0.00 0.00 0.00 13 1018.3
20210722232439 90 11 0.0 0.0 0.00 0.00 0.00 13 1018.0
20210722231937 90 7 0.0 0.0 0.00 0.00 0.00 13 1018.0
20210722231437 90 355 0.0 0.0 0.00 0.00 0.00 13 1018.0
20210722230936 90 343 0.0 0.0 0.00 0.00 0.00 13 1018.0
20210722230434 90 344 0.0 0.0 0.00 0.00 0.00 11 1018.3
20210722225930 90 44 0.0 0.0 0.00 0.00 0.00 11 1018.0
20210722225430 90 306 0.0 0.0 0.00 0.00 0.00 13 1018.0
20210722224928 90 351 0.0 0.0 0.00 0.00 0.00 16 1018.3
20210722224427 90 11 0.0 3.0 0.00 0.00 0.00 13 1018.0
20210722223924 90 41 0.0 3.0 0.00 0.00 0.00 11 1018.0
20210722223424 90 62 0.0 0.0 0.00 0.00 0.00 11 1018.0
20210722222922 90 158 0.0 0.0 0.00 0.00 0.00 10 1018.0
20210722222421 90 12 0.0 0.0 0.00 0.00 0.00 13 1018.0
20210722221921 91 57 0.0 0.0 0.00 0.00 0.00 11 1018.3
20210722221418 91 154 0.0 0.0 0.00 0.00 0.00 10 1018.7
20210722220917 91 28 0.0 0.0 0.00 0.00 0.00 10 1018.3
20210722220415 91 139 2.0 5.0 0.00 0.00 0.00 10 1018.3
20210722215913 90 112 0.0 0.0 0.00 0.00 0.00 11 1018.3
20210722215411 90 148 0.0 0.0 0.00 0.00 0.00 10 1018.3
20210722214910 90 317 0.0 0.0 0.00 0.00 0.00 11 1018.7
20210722214409 90 171 0.0 0.0 0.00 0.00 0.00 10 1018.3
20210722213907 90 9 0.0 0.0 0.00 0.00 0.00 12 1018.7
20210722213406 90 149 0.0 0.0 0.00 0.00 0.00 10 1018.7
20210722212901 90 42 0.0 0.0 0.00 0.00 0.00 11 1018.7
20210722212400 90 147 0.0 0.0 0.00 0.00 0.00 13 1018.7
20210722211900 90 1 0.0 0.0 0.00 0.00 0.00 10 1018.7
20210722211359 90 2 0.0 0.0 0.00 0.00 0.00 12 1018.7
20210722210857 90 171 0.0 0.0 0.00 0.00 0.00 10 1019.0
20210722210357 90 256 0.0 0.0 0.00 0.00 0.00 10 1018.7
20210722205856 90 175 0.0 0.0 0.00 0.00 0.00 12 1019.0
20210722205356 90 289 0.0 0.0 0.00 0.00 0.00 11 1019.0
20210722204854 90 18 0.0 0.0 0.00 0.00 0.00 13 1019.0
20210722204352 90 255 0.0 0.0 0.00 0.00 0.00 11 1019.0
20210722203851 90 161 0.0 0.0 0.00 0.00 0.00 13 1019.0
20210722203349 90 109 0.0 0.0 0.00 0.00 0.00 10 1019.0
20210722202847 90 193 0.0 0.0 0.00 0.00 0.00 11 1019.4
20210722202344 90 156 0.0 0.0 0.00 0.00 0.00 10 1019.4
20210722201842 90 244 0.0 0.0 0.00 0.00 0.00 10 1019.7